Pocatello, ID

10:58 PM MDT on May 25, 2017 (GMT -0600)
Pocatello Regional

Weather History for KPIH - September, 2014

Change the Weather History Date:

Friday, September 19, 2014

  Actual Average Record
Temperature  
Mean Temperature 64 °F 58 °F  
Max Temperature 80 °F 74 °F 90 °F (1956)
Min Temperature 48 °F 41 °F 21 °F (1965)
Degree Days  
Heating Degree Days 1 8  
Month to date heating degree days 86 92  
Since 1 July heating degree days 121 138  
Cooling Degree Days 0 0  
Month to date cooling degree days 26 20  
Year to date cooling degree days 412 390  
Growing Degree Days 16 (Base 50)    
Moisture  
Dew Point 46 °F    
Average Humidity 63    
Maximum Humidity 100    
Minimum Humidity 25    
Precipitation  
Precipitation 0.00 in 0.02 in 0.45 in (1982)
Month to date precipitation 0.21 0.50  
Year to date precipitation 8.99 8.57  
Snow  
Snow 0.00 in - - ()
Month to date snowfall 0.0  
Since 1 July snowfall 0.0  
Since 1 September snowfall 0.0  
Snow Depth 0.00 in    
Sea Level Pressure  
Sea Level Pressure 29.97 in    
Wind  
Wind Speed 11 mph (SW)    
Max Wind Speed 22 mph    
Max Gust Speed 28 mph    
Visibility 10 miles    
Events      
T = Trace of Precipitation, MM = Missing Value Source: NWS Daily Summary

Daily Weather History Graph

Daily Weather History Graph

Search for Another Location

Airport or City:

Trip Planner

Search our weather history database for the weather conditions in past years. The results will help you decide how hot, cold, wet, or windy it might be!

Date:

Astronomy

Sep. 19, 2014 Rise Set
Actual Time 7:14 AM MDT 7:32 PM MDT
Civil Twilight 6:46 AM MDT 8:01 PM MDT
Nautical Twilight 6:12 AM MDT 8:34 PM MDT
Astronomical Twilight 5:38 AM MDT 9:08 PM MDT
Moon 2:58 AM MDT (9/19) 5:08 PM MDT (9/19)
Length of Visible Light 13h 15m
Length of Day
12h 18m
Waning Crescent, 18% of the Moon is Illuminated
Sep 19
Waning Crescent
Sep 24
New
Oct 1
First Quarter
Oct 8
Full
Oct 15
Last Quarter

Hourly Weather History & Observations

Time (MDT) Temp. Dew Point Humidity Pressure Visibility Wind Dir Wind Speed Gust Speed Precip Events Conditions
12:53 AM 57.0 °F 53.1 °F 87% 29.81 in 10.0 mi ENE 4.6 mph - N/A   Clear
1:53 AM 55.0 °F 54.0 °F 96% 29.83 in 10.0 mi NW 6.9 mph - N/A   Clear
2:53 AM 52.0 °F 52.0 °F 100% 29.85 in 10.0 mi Calm Calm - N/A   Clear
3:53 AM 54.0 °F 53.1 °F 97% 29.88 in 10.0 mi WSW 3.5 mph - N/A   Clear
4:53 AM 50.0 °F 50.0 °F 100% 29.90 in 10.0 mi SSW 3.5 mph - N/A   Clear
5:53 AM 51.1 °F 46.9 °F 86% 29.95 in 10.0 mi SW 8.1 mph - N/A   Clear
6:53 AM 55.4 °F 46.4 °F 72% 30.05 in 10.0 mi SW 11.5 mph - N/A   Clear
7:53 AM 57.0 °F 46.0 °F 67% 29.99 in 10.0 mi SW 15.0 mph - N/A   Clear
8:53 AM 60.1 °F 46.9 °F 62% 30.00 in 10.0 mi SW 13.8 mph - N/A   Clear
9:53 AM 63.0 °F 46.9 °F 56% 30.02 in 10.0 mi SW 18.4 mph - N/A   Clear
10:53 AM 66.0 °F 46.9 °F 50% 30.02 in 10.0 mi WSW 20.7 mph - N/A   Clear
11:53 AM 71.1 °F 48.0 °F 44% 30.01 in 10.0 mi WSW 20.7 mph - N/A   Clear
12:53 PM 75.0 °F 46.9 °F 37% 29.99 in 10.0 mi WSW 16.1 mph - N/A   Clear
1:53 PM 75.9 °F 44.1 °F 32% 29.99 in 10.0 mi WSW 17.3 mph 24.2 mph N/A   Clear
2:53 PM 78.1 °F 44.1 °F 30% 29.98 in 10.0 mi West 16.1 mph 21.9 mph N/A   Clear
3:53 PM 79.0 °F 41.0 °F 26% 29.96 in 10.0 mi WSW 15.0 mph 23.0 mph N/A   Clear
4:53 PM 79.0 °F 39.0 °F 24% 29.95 in 10.0 mi WSW 17.3 mph - N/A   Clear
5:53 PM 78.1 °F 39.9 °F 25% 29.95 in 10.0 mi WSW 12.7 mph - N/A   Clear
6:53 PM 75.0 °F 39.9 °F 28% 29.96 in 10.0 mi WSW 11.5 mph - N/A   Clear
7:53 PM 68.0 °F 42.1 °F 39% 29.99 in 10.0 mi SW 10.4 mph - N/A   Clear
8:53 PM 59.0 °F 43.0 °F 55% 30.02 in 10.0 mi South 5.8 mph - N/A   Clear
9:53 PM 62.1 °F 45.0 °F 53% 30.02 in 10.0 mi SSW 8.1 mph - N/A   Clear
10:53 PM 60.1 °F 45.0 °F 57% 30.03 in 10.0 mi South 9.2 mph - N/A   Clear
11:53 PM 55.9 °F 44.1 °F 64% 30.03 in 10.0 mi SE 3.5 mph - N/A   Clear